MSR543 LTFM-HECA

Flight info

Callsign MSR543
Flight time 1h 45m
Altitude 37000
Route RATVU UT35 AYT UM855 TOMBI M855 RASDA A16 CVO
Aircraft B738/M-SDE2E3FGHIRWXY/LB1

Departure

Time 2026-02-20 09:08
Airport İstanbul Airport (LTFM)

Arrival

Time 2026-02-20 10:53
Airport Cairo International Airport (HECA)
Time Latitude Longitude Altitude Speed Heading
2026-02-20 08:45 41.27029 28.71386 324 ft 0 kts 89°
2026-02-20 08:57 41.27029 28.71385 324 ft 1 kts 89°
2026-02-20 08:58 41.27029 28.71365 319 ft 3 kts 87°
2026-02-20 08:58 41.27028 28.71338 320 ft 3 kts 85°
2026-02-20 08:58 41.27025 28.71311 322 ft 3 kts 82°
2026-02-20 08:58 41.27022 28.71285 319 ft 3 kts 78°
2026-02-20 08:59 41.27018 28.71259 317 ft 3 kts 73°
2026-02-20 08:59 41.27011 28.71234 318 ft 3 kts 62°
2026-02-20 08:59 41.27000 28.71213 317 ft 3 kts 34°
2026-02-20 08:59 41.26989 28.71206 318 ft 1 kts 359°
2026-02-20 09:01 41.26996 28.71206 317 ft 0 kts 358°
2026-02-20 09:02 41.26999 28.71206 316 ft 2 kts 359°
2026-02-20 09:02 41.27043 28.71205 319 ft 12 kts 359°
2026-02-20 09:02 41.27170 28.71203 316 ft 24 kts 358°
2026-02-20 09:02 41.27349 28.71200 311 ft 27 kts 359°
2026-02-20 09:03 41.27535 28.71196 308 ft 26 kts 359°
2026-02-20 09:03 41.27710 28.71193 301 ft 24 kts 359°
2026-02-20 09:03 41.27870 28.71190 300 ft 23 kts 359°
2026-02-20 09:03 41.28027 28.71186 296 ft 22 kts 359°
2026-02-20 09:04 41.28195 28.71183 288 ft 28 kts 359°
2026-02-20 09:04 41.28427 28.71178 278 ft 37 kts 359°
2026-02-20 09:04 41.28695 28.71172 268 ft 39 kts 359°
2026-02-20 09:04 41.28972 28.71168 257 ft 40 kts 359°
2026-02-20 09:05 41.29248 28.71162 248 ft 40 kts 359°
2026-02-20 09:05 41.29439 28.71162 244 ft 16 kts 12°
2026-02-20 09:05 41.29475 28.71237 243 ft 10 kts 89°
2026-02-20 09:05 41.29477 28.71393 239 ft 23 kts 89°
2026-02-20 09:06 41.29479 28.71630 229 ft 28 kts 89°
2026-02-20 09:06 41.29482 28.71894 222 ft 29 kts 89°
2026-02-20 09:06 41.29485 28.72153 223 ft 27 kts 88°
2026-02-20 09:06 41.29488 28.72392 226 ft 24 kts 89°
2026-02-20 09:07 41.29452 28.72462 228 ft 8 kts 176°
2026-02-20 09:07 41.29277 28.72464 232 ft 57 kts 179°
2026-02-20 09:07 41.28654 28.72475 254 ft 120 kts 179°
2026-02-20 09:07 41.27716 28.72497 726 ft 131 kts 181°
2026-02-20 09:08 41.26781 28.72522 1462 ft 140 kts 184°
2026-02-20 09:08 41.25778 28.72563 2209 ft 147 kts 184°
2026-02-20 09:08 41.24741 28.72609 3006 ft 151 kts 186°
2026-02-20 09:08 41.23680 28.72658 3823 ft 155 kts 185°
2026-02-20 09:09 41.22590 28.72712 4617 ft 158 kts 185°
2026-02-20 09:09 41.21483 28.72758 5399 ft 160 kts 185°
2026-02-20 09:09 41.20368 28.72811 6168 ft 161 kts 184°
2026-02-20 09:09 41.19242 28.72821 6808 ft 168 kts 194°
2026-02-20 09:10 41.18063 28.72311 7019 ft 193 kts 204°
2026-02-20 09:10 41.16860 28.71334 7220 ft 214 kts 220°
2026-02-20 09:10 41.15676 28.69952 7409 ft 240 kts 223°
2026-02-20 09:10 41.14403 28.68399 8005 ft 252 kts 223°
2026-02-20 09:11 41.13076 28.66864 8857 ft 255 kts 214°
2026-02-20 09:11 41.11422 28.65987 9699 ft 261 kts 194°
2026-02-20 09:11 41.09568 28.65928 10372 ft 275 kts 180°
2026-02-20 09:11 41.07587 28.66236 10574 ft 299 kts 177°
2026-02-20 09:12 41.05447 28.66645 10744 ft 322 kts 176°
2026-02-20 09:12 41.03171 28.67088 11102 ft 336 kts 176°
2026-02-20 09:12 41.00839 28.67532 11717 ft 342 kts 176°
2026-02-20 09:12 40.98486 28.67968 12475 ft 343 kts 176°
2026-02-20 09:13 40.96097 28.68397 13172 ft 348 kts 177°
2026-02-20 09:13 40.93701 28.68819 13841 ft 354 kts 177°
2026-02-20 09:13 40.91247 28.69250 14513 ft 357 kts 177°
2026-02-20 09:13 40.88772 28.69663 15234 ft 359 kts 178°
2026-02-20 09:14 40.86278 28.70055 15932 ft 362 kts 178°
2026-02-20 09:14 40.83768 28.70444 16615 ft 365 kts 178°
2026-02-20 09:14 40.81235 28.70837 17302 ft 368 kts 178°
2026-02-20 09:14 40.78677 28.71237 17956 ft 372 kts 178°
2026-02-20 09:15 40.76096 28.71642 18578 ft 375 kts 178°
2026-02-20 09:15 40.73490 28.72052 19163 ft 378 kts 178°
2026-02-20 09:15 40.70109 28.72585 19910 ft 382 kts 178°
2026-02-20 09:15 40.67461 28.73001 20488 ft 384 kts 178°
2026-02-20 09:16 40.64791 28.73420 21032 ft 388 kts 178°
2026-02-20 09:16 40.62102 28.73842 21573 ft 391 kts 178°
2026-02-20 09:16 40.59391 28.74267 22106 ft 394 kts 179°
2026-02-20 09:16 40.56661 28.74713 22633 ft 398 kts 175°
2026-02-20 09:17 40.53976 28.75854 23113 ft 414 kts 159°
2026-02-20 09:17 40.51578 28.78050 23629 ft 427 kts 145°
2026-02-20 09:17 40.49348 28.80659 24063 ft 431 kts 143°
2026-02-20 09:17 40.47153 28.83304 24449 ft 435 kts 143°
2026-02-20 09:18 40.44887 28.86030 24842 ft 437 kts 143°
2026-02-20 09:18 40.42624 28.88622 25233 ft 436 kts 149°
2026-02-20 09:18 40.40072 28.90720 25654 ft 429 kts 159°
2026-02-20 09:18 40.37333 28.92195 26074 ft 424 kts 166°
2026-02-20 09:19 40.34531 28.93473 26456 ft 427 kts 167°
2026-02-20 09:19 40.31713 28.94747 26806 ft 430 kts 167°
2026-02-20 09:19 40.28878 28.96034 27164 ft 433 kts 167°
2026-02-20 09:19 40.26028 28.97338 27536 ft 435 kts 166°
2026-02-20 09:20 40.23163 28.98659 27884 ft 437 kts 166°
2026-02-20 09:20 40.20285 28.99992 28218 ft 440 kts 166°
2026-02-20 09:20 40.17391 29.01337 28544 ft 443 kts 166°
2026-02-20 09:20 40.14480 29.02690 28878 ft 445 kts 166°
2026-02-20 09:21 40.11558 29.04050 29206 ft 447 kts 166°
2026-02-20 09:21 40.08612 29.05419 29532 ft 450 kts 166°
2026-02-20 09:21 40.05661 29.06790 29849 ft 452 kts 166°
2026-02-20 09:21 40.02693 29.08167 30140 ft 454 kts 166°
2026-02-20 09:22 39.99746 29.09533 30481 ft 454 kts 166°
2026-02-20 09:22 39.96742 29.10926 30870 ft 451 kts 166°
2026-02-20 09:22 39.93826 29.12277 31197 ft 451 kts 166°
2026-02-20 09:22 39.90859 29.13648 31465 ft 452 kts 166°
2026-02-20 09:23 39.87888 29.15019 31771 ft 453 kts 166°
2026-02-20 09:23 39.84922 29.16386 32098 ft 452 kts 166°
2026-02-20 09:23 39.81958 29.17752 32451 ft 452 kts 166°
2026-02-20 09:23 39.78995 29.19116 32786 ft 451 kts 166°
2026-02-20 09:24 39.76039 29.20476 33110 ft 451 kts 166°
2026-02-20 09:24 39.73074 29.21838 33442 ft 451 kts 167°
2026-02-20 09:24 39.70116 29.23196 33757 ft 450 kts 167°
2026-02-20 09:24 39.67162 29.24550 34076 ft 450 kts 167°
2026-02-20 09:25 39.64213 29.25902 34357 ft 450 kts 167°
2026-02-20 09:25 39.61258 29.27254 34617 ft 449 kts 167°
2026-02-20 09:25 39.58312 29.28602 34868 ft 449 kts 167°
2026-02-20 09:25 39.55399 29.29933 35128 ft 449 kts 167°
2026-02-20 09:26 39.52446 29.31280 35377 ft 449 kts 167°
2026-02-20 09:26 39.49499 29.32625 35630 ft 449 kts 167°
2026-02-20 09:26 39.46550 29.33969 35875 ft 448 kts 167°
2026-02-20 09:26 39.43602 29.35311 36119 ft 448 kts 167°
2026-02-20 09:27 39.40662 29.36649 36358 ft 448 kts 167°
2026-02-20 09:27 39.37721 29.37985 36601 ft 448 kts 167°
2026-02-20 09:27 39.34790 29.39317 36850 ft 447 kts 167°
2026-02-20 09:27 39.31846 29.40652 37080 ft 447 kts 167°
2026-02-20 09:28 39.28908 29.41983 37197 ft 449 kts 167°
2026-02-20 09:28 39.25951 29.43320 37199 ft 450 kts 167°
2026-02-20 09:28 39.20091 29.45971 37188 ft 447 kts 167°
2026-02-20 09:29 39.14238 29.48618 37195 ft 443 kts 167°
2026-02-20 09:29 39.08433 29.51235 37205 ft 440 kts 168°
2026-02-20 09:30 39.02649 29.53835 37212 ft 441 kts 168°
2026-02-20 09:30 38.96845 29.56435 37229 ft 448 kts 168°
2026-02-20 09:31 38.90921 29.59087 37227 ft 452 kts 168°
2026-02-20 09:31 38.84968 29.61754 37223 ft 454 kts 168°
2026-02-20 09:32 38.78992 29.64426 37223 ft 454 kts 168°
2026-02-20 09:32 38.73023 29.67090 37225 ft 453 kts 168°
2026-02-20 09:33 38.67108 29.69725 37217 ft 452 kts 168°
2026-02-20 09:33 38.61179 29.72360 37223 ft 450 kts 168°
2026-02-20 09:34 38.55273 29.74980 37227 ft 448 kts 168°
2026-02-20 09:34 38.49369 29.77594 37220 ft 447 kts 168°
2026-02-20 09:35 38.43487 29.80194 37221 ft 446 kts 168°
2026-02-20 09:35 38.37660 29.82765 37217 ft 446 kts 168°
2026-02-20 09:36 38.31801 29.85345 37224 ft 446 kts 168°
2026-02-20 09:36 38.25938 29.87923 37217 ft 446 kts 168°
2026-02-20 09:37 38.21054 29.90067 37215 ft 447 kts 168°
2026-02-20 09:37 38.15167 29.92647 37217 ft 448 kts 168°
2026-02-20 09:38 38.09269 29.95228 37220 ft 449 kts 168°
2026-02-20 09:38 38.03345 29.97816 37228 ft 450 kts 168°
2026-02-20 09:39 37.97408 30.00405 37224 ft 452 kts 168°
2026-02-20 09:39 37.91455 30.02997 37248 ft 453 kts 168°
2026-02-20 09:40 37.85517 30.05578 37253 ft 454 kts 168°
2026-02-20 09:40 37.79525 30.08178 37263 ft 456 kts 168°
2026-02-20 09:41 37.73523 30.10779 37268 ft 455 kts 168°
2026-02-20 09:41 37.67524 30.13374 37263 ft 455 kts 168°
2026-02-20 09:42 37.61530 30.15962 37263 ft 455 kts 168°
2026-02-20 09:43 37.52533 30.19837 37275 ft 456 kts 168°
2026-02-20 09:43 37.46630 30.22380 37281 ft 448 kts 168°
2026-02-20 09:44 37.40691 30.24925 37290 ft 452 kts 168°
2026-02-20 09:44 37.34699 30.27487 37297 ft 456 kts 168°
2026-02-20 09:45 37.28652 30.30072 37299 ft 459 kts 168°
2026-02-20 09:45 37.22575 30.32668 37301 ft 462 kts 168°
2026-02-20 09:46 37.16516 30.35252 37307 ft 463 kts 168°
2026-02-20 09:46 37.10408 30.37852 37299 ft 463 kts 168°
2026-02-20 09:47 37.04309 30.40444 37315 ft 463 kts 169°
2026-02-20 09:47 36.98206 30.43033 37306 ft 462 kts 169°
2026-02-20 09:48 36.92118 30.45611 37314 ft 462 kts 169°
2026-02-20 09:48 36.86037 30.48181 37316 ft 460 kts 169°
2026-02-20 09:49 36.80003 30.50726 37317 ft 460 kts 169°
2026-02-20 09:49 36.73947 30.53277 37316 ft 459 kts 169°
2026-02-20 09:50 36.67895 30.55823 37325 ft 458 kts 169°
2026-02-20 09:50 36.61857 30.58357 37321 ft 458 kts 169°
2026-02-20 09:51 36.55811 30.60891 37331 ft 458 kts 169°
2026-02-20 09:51 36.49758 30.63423 37324 ft 460 kts 170°
2026-02-20 09:52 36.43687 30.65958 37323 ft 461 kts 170°
2026-02-20 09:52 36.37582 30.68505 37315 ft 462 kts 170°
2026-02-20 09:53 36.31468 30.71051 37318 ft 464 kts 170°
2026-02-20 09:53 36.25378 30.73583 37313 ft 465 kts 170°
2026-02-20 09:54 36.19235 30.76133 37311 ft 466 kts 170°
2026-02-20 09:54 36.13075 30.78687 37308 ft 467 kts 170°
2026-02-20 09:55 36.06901 30.81241 37309 ft 468 kts 171°
2026-02-20 09:55 36.00655 30.82765 37308 ft 448 kts 186°
2026-02-20 09:56 35.94427 30.83078 37298 ft 447 kts 187°
2026-02-20 09:56 35.88248 30.83385 37301 ft 448 kts 187°
2026-02-20 09:57 35.82023 30.83751 37299 ft 448 kts 186°
2026-02-20 09:57 35.75795 30.84136 37300 ft 448 kts 186°
2026-02-20 09:58 35.69571 30.84519 37294 ft 447 kts 187°
2026-02-20 09:58 35.63350 30.84899 37290 ft 447 kts 187°
2026-02-20 09:59 35.57177 30.85203 37288 ft 445 kts 188°
2026-02-20 09:59 35.50983 30.85392 37293 ft 444 kts 188°
2026-02-20 10:00 35.44805 30.85582 37292 ft 444 kts 188°
2026-02-20 10:00 35.38622 30.85788 37290 ft 444 kts 188°
2026-02-20 10:01 35.32442 30.86000 37290 ft 444 kts 188°
2026-02-20 10:01 35.26262 30.86212 37291 ft 444 kts 188°
2026-02-20 10:02 35.20119 30.86421 37291 ft 444 kts 188°
2026-02-20 10:02 35.13949 30.86627 37290 ft 444 kts 188°
2026-02-20 10:03 35.07773 30.86825 37291 ft 444 kts 188°
2026-02-20 10:03 35.01600 30.87022 37290 ft 443 kts 188°
2026-02-20 10:04 34.95434 30.87220 37291 ft 443 kts 188°
2026-02-20 10:04 34.89268 30.87418 37283 ft 443 kts 188°
2026-02-20 10:05 34.83103 30.87616 37280 ft 442 kts 188°
2026-02-20 10:05 34.76958 30.87813 37299 ft 441 kts 188°
2026-02-20 10:06 34.70855 30.88008 37290 ft 441 kts 188°
2026-02-20 10:06 34.64709 30.88204 37293 ft 441 kts 188°
2026-02-20 10:07 34.58561 30.88428 37287 ft 442 kts 188°
2026-02-20 10:07 34.52409 30.88752 37289 ft 442 kts 187°
2026-02-20 10:08 34.46251 30.89083 37284 ft 442 kts 187°
2026-02-20 10:08 34.40138 30.89398 37293 ft 443 kts 187°
2026-02-20 10:09 34.33966 30.89710 37284 ft 443 kts 188°
2026-02-20 10:09 34.27798 30.90022 37288 ft 443 kts 187°
2026-02-20 10:10 34.21662 30.90338 37279 ft 444 kts 187°
2026-02-20 10:10 34.15443 30.90684 37293 ft 445 kts 187°
2026-02-20 10:11 34.09290 30.91028 37287 ft 445 kts 187°
2026-02-20 10:11 34.03090 30.91371 37293 ft 446 kts 187°
2026-02-20 10:12 33.96879 30.91712 37284 ft 446 kts 187°
2026-02-20 10:12 33.90674 30.92008 37288 ft 446 kts 188°
2026-02-20 10:13 33.84498 30.92227 37285 ft 446 kts 188°
2026-02-20 10:13 33.78295 30.92446 37285 ft 446 kts 188°
2026-02-20 10:14 33.72084 30.92675 37282 ft 446 kts 188°
2026-02-20 10:14 33.65872 30.92909 37286 ft 446 kts 188°
2026-02-20 10:15 33.59664 30.93143 37281 ft 447 kts 188°
2026-02-20 10:15 33.53485 30.93376 37284 ft 447 kts 188°
2026-02-20 10:16 33.47271 30.93609 37279 ft 447 kts 188°
2026-02-20 10:16 33.41052 30.93841 37291 ft 447 kts 188°
2026-02-20 10:17 33.34835 30.94074 37283 ft 447 kts 188°
2026-02-20 10:17 33.28607 30.94307 37286 ft 447 kts 188°
2026-02-20 10:18 33.22387 30.94539 37279 ft 447 kts 188°
2026-02-20 10:18 33.17212 30.94732 37282 ft 447 kts 188°
2026-02-20 10:19 33.09941 30.95007 37280 ft 448 kts 187°
2026-02-20 10:19 33.03720 30.95593 37285 ft 452 kts 184°
2026-02-20 10:20 32.97456 30.96350 37274 ft 453 kts 184°
2026-02-20 10:20 32.91188 30.97092 37282 ft 452 kts 184°
2026-02-20 10:21 32.84915 30.97803 37276 ft 452 kts 185°
2026-02-20 10:21 32.78642 30.98502 37276 ft 452 kts 185°
2026-02-20 10:22 32.72381 30.99196 37273 ft 452 kts 184°
2026-02-20 10:22 32.66157 30.99886 37278 ft 452 kts 184°
2026-02-20 10:23 32.59885 31.00581 37274 ft 452 kts 184°
2026-02-20 10:23 32.53626 31.01274 37275 ft 452 kts 184°
2026-02-20 10:24 32.47363 31.01966 37271 ft 452 kts 184°
2026-02-20 10:24 32.41135 31.02654 37274 ft 452 kts 184°
2026-02-20 10:25 32.34862 31.03345 37267 ft 452 kts 184°
2026-02-20 10:25 32.28594 31.04035 37276 ft 452 kts 184°
2026-02-20 10:26 32.23369 31.04610 37269 ft 452 kts 184°
2026-02-20 10:26 32.17089 31.05299 37267 ft 453 kts 184°
2026-02-20 10:27 32.10843 31.05984 37268 ft 453 kts 184°
2026-02-20 10:27 32.04569 31.06671 37265 ft 453 kts 184°
2026-02-20 10:28 31.98280 31.07359 37264 ft 453 kts 184°
2026-02-20 10:28 31.91979 31.08045 36866 ft 460 kts 184°
2026-02-20 10:28 31.88789 31.08390 36331 ft 458 kts 184°
2026-02-20 10:29 31.85619 31.08738 35686 ft 458 kts 183°
2026-02-20 10:29 31.82440 31.09086 35021 ft 459 kts 183°
2026-02-20 10:29 31.79249 31.09434 34309 ft 461 kts 182°
2026-02-20 10:29 31.76040 31.09783 33479 ft 463 kts 182°
2026-02-20 10:30 31.72829 31.10133 32733 ft 463 kts 182°
2026-02-20 10:30 31.69631 31.10484 32219 ft 458 kts 182°
2026-02-20 10:30 31.66503 31.10827 31699 ft 453 kts 181°
2026-02-20 10:30 31.63376 31.11168 31187 ft 449 kts 181°
2026-02-20 10:31 31.60279 31.11503 30687 ft 445 kts 181°
2026-02-20 10:31 31.57205 31.11836 30148 ft 441 kts 181°
2026-02-20 10:31 31.54154 31.12166 29557 ft 437 kts 181°
2026-02-20 10:31 31.51138 31.12554 29011 ft 435 kts 178°
2026-02-20 10:32 31.48188 31.13070 28510 ft 431 kts 176°
2026-02-20 10:32 31.45245 31.13640 27975 ft 427 kts 176°
2026-02-20 10:32 31.42325 31.14214 27477 ft 423 kts 176°
2026-02-20 10:32 31.39430 31.14772 26984 ft 419 kts 176°
2026-02-20 10:33 31.36561 31.15311 26475 ft 416 kts 176°
2026-02-20 10:33 31.33712 31.15838 25984 ft 413 kts 176°
2026-02-20 10:33 31.30877 31.16358 25496 ft 410 kts 176°
2026-02-20 10:33 31.28062 31.16874 24998 ft 408 kts 176°
2026-02-20 10:34 31.25255 31.17388 24492 ft 407 kts 175°
2026-02-20 10:34 31.22466 31.17901 23972 ft 406 kts 175°
2026-02-20 10:34 31.19678 31.18421 23399 ft 405 kts 175°
2026-02-20 10:34 31.16941 31.18934 22872 ft 402 kts 175°
2026-02-20 10:35 31.14184 31.19452 22365 ft 399 kts 175°
2026-02-20 10:35 31.11452 31.19965 21882 ft 396 kts 175°
2026-02-20 10:35 31.08744 31.20472 21405 ft 392 kts 175°
2026-02-20 10:35 31.06053 31.20975 20928 ft 390 kts 175°
2026-02-20 10:36 31.03382 31.21473 20467 ft 387 kts 175°
2026-02-20 10:36 31.00733 31.21967 19991 ft 385 kts 175°
2026-02-20 10:36 30.98125 31.22453 19544 ft 382 kts 175°
2026-02-20 10:36 30.95502 31.22941 19072 ft 381 kts 175°
2026-02-20 10:37 30.92886 31.23428 18603 ft 380 kts 174°
2026-02-20 10:37 30.90286 31.23911 18086 ft 378 kts 174°
2026-02-20 10:37 30.87685 31.24394 17581 ft 376 kts 174°
2026-02-20 10:37 30.85120 31.24872 17123 ft 372 kts 174°
2026-02-20 10:38 30.82570 31.25346 16660 ft 369 kts 174°
2026-02-20 10:38 30.80045 31.25814 16214 ft 366 kts 174°
2026-02-20 10:38 30.77528 31.26281 15761 ft 364 kts 174°
2026-02-20 10:38 30.75037 31.26743 15308 ft 362 kts 174°
2026-02-20 10:39 30.72559 31.27201 14884 ft 360 kts 174°
2026-02-20 10:39 30.70083 31.27391 14448 ft 354 kts 188°
2026-02-20 10:39 30.67675 31.26965 14116 ft 347 kts 193°
2026-02-20 10:39 30.65353 31.26425 13745 ft 343 kts 194°
2026-02-20 10:40 30.63031 31.25858 13353 ft 339 kts 194°
2026-02-20 10:40 30.60731 31.25286 12962 ft 337 kts 194°
2026-02-20 10:40 30.58451 31.24712 12589 ft 335 kts 194°
2026-02-20 10:40 30.56181 31.24133 12204 ft 332 kts 194°
2026-02-20 10:41 30.53928 31.23552 11830 ft 330 kts 194°
2026-02-20 10:41 30.51690 31.22970 11478 ft 328 kts 194°
2026-02-20 10:41 30.49472 31.22389 11109 ft 326 kts 195°
2026-02-20 10:41 30.47265 31.21808 10757 ft 323 kts 195°
2026-02-20 10:42 30.45093 31.21230 10577 ft 315 kts 195°
2026-02-20 10:42 30.43005 31.20674 10432 ft 306 kts 195°
2026-02-20 10:42 30.40958 31.20132 10304 ft 298 kts 195°
2026-02-20 10:42 30.38959 31.19605 10114 ft 293 kts 194°
2026-02-20 10:43 30.36963 31.19078 9729 ft 295 kts 194°
2026-02-20 10:43 30.32956 31.18015 8943 ft 296 kts 195°
2026-02-20 10:43 30.30951 31.17481 8579 ft 296 kts 194°
2026-02-20 10:44 30.28942 31.16942 8208 ft 296 kts 195°
2026-02-20 10:44 30.26939 31.16402 7851 ft 296 kts 194°
2026-02-20 10:44 30.24929 31.15855 7496 ft 297 kts 194°
2026-02-20 10:44 30.22915 31.15296 7158 ft 299 kts 194°
2026-02-20 10:45 30.20883 31.14726 6776 ft 301 kts 194°
2026-02-20 10:45 30.18878 31.14156 6454 ft 301 kts 194°
2026-02-20 10:45 30.16832 31.13567 6023 ft 303 kts 194°
2026-02-20 10:45 30.14797 31.12972 5764 ft 300 kts 194°
2026-02-20 10:46 30.12779 31.12381 5459 ft 298 kts 194°
2026-02-20 10:46 30.10747 31.12216 5184 ft 289 kts 169°
2026-02-20 10:46 30.08881 31.12912 4974 ft 277 kts 156°
2026-02-20 10:46 30.07142 31.13784 4708 ft 267 kts 155°
2026-02-20 10:47 30.05475 31.14646 4503 ft 256 kts 155°
2026-02-20 10:47 30.03932 31.15552 4280 ft 243 kts 142°
2026-02-20 10:47 30.02816 31.16912 4014 ft 231 kts 126°
2026-02-20 10:47 30.01819 31.18414 3776 ft 234 kts 125°
2026-02-20 10:48 30.00861 31.19871 3557 ft 229 kts 125°
2026-02-20 10:48 29.99911 31.21341 3363 ft 228 kts 125°
2026-02-20 10:48 29.99124 31.22880 3149 ft 218 kts 100°
2026-02-20 10:48 29.99293 31.24531 3044 ft 205 kts 61°
2026-02-20 10:49 29.99971 31.25911 2917 ft 190 kts 55°
2026-02-20 10:49 30.00667 31.27130 2786 ft 176 kts 53°
2026-02-20 10:49 30.01389 31.28272 2623 ft 175 kts 50°
2026-02-20 10:49 30.02146 31.29337 2546 ft 168 kts 47°
2026-02-20 10:50 30.02867 31.30306 2496 ft 156 kts 46°
2026-02-20 10:50 30.03602 31.31292 2359 ft 163 kts 47°
2026-02-20 10:50 30.04354 31.32293 2107 ft 167 kts 46°
2026-02-20 10:50 30.05096 31.33273 1924 ft 156 kts 48°
2026-02-20 10:51 30.05775 31.34205 1720 ft 149 kts 46°
2026-02-20 10:51 30.06461 31.35125 1477 ft 147 kts 46°
2026-02-20 10:51 30.07108 31.35993 1263 ft 139 kts 46°
2026-02-20 10:51 30.07735 31.36832 1117 ft 141 kts 47°
2026-02-20 10:52 30.08385 31.37698 908 ft 140 kts 48°
2026-02-20 10:52 30.09009 31.38547 720 ft 139 kts 48°
2026-02-20 10:52 30.09626 31.39392 552 ft 138 kts 47°
2026-02-20 10:52 30.10267 31.40223 382 ft 135 kts 48°
2026-02-20 10:53 30.10796 31.40925 370 ft 87 kts 49°
2026-02-20 10:53 30.11078 31.41298 374 ft 50 kts 49°
2026-02-20 10:53 30.11290 31.41537 373 ft 33 kts 31°
2026-02-20 10:53 30.11483 31.41626 374 ft 25 kts 17°
2026-02-20 10:54 30.11644 31.41590 374 ft 22 kts 342°
2026-02-20 10:54 30.11689 31.41494 374 ft 14 kts 247°
2026-02-20 10:54 30.11658 31.41392 374 ft 13 kts 252°
2026-02-20 10:54 30.11631 31.41295 374 ft 13 kts 252°
2026-02-20 10:55 30.11630 31.41199 374 ft 12 kts 309°
2026-02-20 10:55 30.11706 31.41162 374 ft 12 kts 342°
2026-02-20 10:55 30.11776 31.41134 374 ft 6 kts 324°
2026-02-20 10:55 30.11778 31.41085 374 ft 6 kts 253°
2026-02-20 10:56 30.11766 31.41038 374 ft 5 kts 252°
2026-02-20 10:56 30.11760 31.41018 374 ft 1 kts 252°
2026-02-20 10:56 30.11760 31.41016 374 ft 0 kts 252°